Regional Weather Roundup
Issued by NWS

Home | Current Version | Previous Version | Graphics & Text | Print | Product List | Glossary On
Versions: 1 2 3 4 5 6 7 8 9 10 11 12 13 14 15 16 17 18 19 20 21 22 23 24 25 26 27 28 29 30 31 32 33 34 35 36 37 38 39 40 41 42 43 44 45 46 47 48 49 50
000
ASUS43 KOAX 010302
RWRNE

WEATHER ROUNDUP FOR NEBRASKA
NATIONAL WEATHER SERVICE OMAHA NE
1000 PM CDT THU JUL 31 2014

NOTES: SATELLITE DATA IS BEING USED TO AUGMENT CLOUD COVER ABOVE
       12000 FEET.
       "FAIR" INDICATES FEW OR NO CLOUDS BELOW 12,000 FEET WITH NO
       SIGNIFICANT WEATHER AND/OR OBSTRUCTIONS TO VISIBILITY.

  * THESE STATIONS DO NOT REPORT WEATHER SUCH AS RAIN...SNOW OR FOG.

NEZ001>004-019>022-054>056-010400-
NEBRASKA PANHANDLE

CITY           SKY/WX    TMP DP  RH WIND       PRES   REMARKS
SCOTTSBLUFF    CLEAR     68  53  58 E7        30.16R
ALLIANCE       CLEAR     68  46  45 NE6       30.16R
CHADRON        PTCLDY    74  49  41 CALM      30.12R
KIMBALL        CLEAR     65  48  54 E7        30.21R
SIDNEY         CLEAR     68  39  34 NE6       30.19R
$$

NEZ057>060-069>072-079>082-010400-
SOUTHWEST NEBRASKA

CITY           SKY/WX    TMP DP  RH WIND       PRES   REMARKS
NORTH PLATTE   CLEAR     68  53  58 CALM      30.09R
IMPERIAL       CLEAR     73  59  61 CALM      30.12R
LEXINGTON      CLEAR     69  58  66 NE6       30.06S
MCCOOK         PTCLDY    75  55  49 NW3       30.08R
OGALLALA       CLEAR     69  49  48 CALM      30.12R
$$

NEZ005>010-023>029-035>040-094-010400-
NORTH CENTRAL NEBRASKA

CITY           SKY/WX    TMP DP  RH WIND       PRES   REMARKS
VALENTINE      CLEAR     74  53  48 E7        30.08R
AINSWORTH      CLEAR     67  58  71 E7        30.08R
BROKEN BOW     CLEAR     70  61  73 E6        30.08R
O`NEILL        CLEAR     71  64  81 E7        30.07R
ORD            CLEAR     68  60  75 CALM      30.05R
THEDFORD       CLEAR     73  52  48 CALM      30.10R
$$

NEZ041-046>049-061>064-073>077-083>087-010400-
SOUTH CENTRAL NEBRASKA

CITY           SKY/WX    TMP DP  RH WIND       PRES   REMARKS
GRAND ISLAND   CLEAR     72  60  66 NW6       30.03R
AURORA         CLEAR     71  65  82 CALM      30.01R
HASTINGS       CLEAR     74  58  57 CALM      30.03R
HEBRON         CLEAR     73  53  49 S8        30.01R
HOLDREGE       CLEAR     68  59  73 NE8       30.06R
KEARNEY *      CLEAR     72  57  60 N10       30.05R
YORK           PTCLDY    73  64  73 SE5       30.01R
$$

NEZ011>018-030>034-042>045-010400-
NORTHEAST NEBRASKA

CITY           SKY/WX    TMP DP  RH WIND       PRES   REMARKS
NORFOLK        CLEAR     69  61  75 E5        30.05R
ALBION         CLEAR     67  61  81 CALM      30.05R
BLAIR          MOCLDY    70  60  71 E5        30.04R
COLUMBUS *     PTCLDY    64  61  88 E8        30.03R
FREMONT        MOCLDY    72  64  75 E8        30.04R
TEKAMAH        PTCLDY    67  60  78 CALM      30.03R
WAYNE          PTCLDY    67  63  86 CALM      30.05R
$$

NEZ050>053-065>068-078-088>093-010400-
SOUTHEAST NEBRASKA

CITY           SKY/WX    TMP DP  RH WIND       PRES   REMARKS
LINCOLN        MOCLDY    77  58  51 E14       30.02R
OMAHA EPPLEY   MOCLDY    73  60  63 E10       30.03R
BEATRICE       CLEAR     76  54  46 S10       30.00S
FALLS CITY     PTCLDY    69  60  73 SE6       30.03R
NEBRASKA CITY  MOCLDY    72  58  59 SE7       30.03R
PLATTSMOUTH    CLOUDY    74  56  53 CALM      30.05R
$$

NEZ044-045-051>053-067-010400-
OMAHA AREA

CITY           SKY/WX    TMP DP  RH WIND       PRES   REMARKS
OMAHA EPPLEY   MOCLDY    73  60  63 E10       30.03R
BLAIR          MOCLDY    70  60  71 E5        30.04R
FREMONT        MOCLDY    72  64  75 E8        30.04R
MILLARD        CLOUDY    73  62  68 SE5       30.03R
OFFUTT AFB     CLOUDY    72  63  73 NE5       30.03R
PLATTSMOUTH    CLOUDY    74  56  53 CALM      30.05R
WAHOO          FAIR      68  62  81 E7        30.03R
$$



USA.gov is the U.S. government's official web portal to all federal, state and local government web resources and services.